Location: Ariel
(45.9570°N, 122.5700°W)
Time: 10:51:12
(UTC-07:00)

Transit 2A Rocket - Pass Details

Date: 27 July 2019
Orbit: 590 x 913 km, 66.7° (Epoch: 24 August)

Event Time Altitude Azimuth Distance (km) Brightness Sun altitude
Exits shadow 04:09:34 14° 256° (WSW) 2,265 6.9 -14.0°
Maximum altitude 04:13:58 33° 315° (NW) 1,393 6.4 -13.5°
Drops below altitude 10° 04:18:54 10° 19° (NNE) 2,375 8.6 -12.9°
Sets 04:21:29 0° 29° (NNE) 3,252 9.9 -12.6°
